Total_Precipitation_Accumulation
0.00 0.02 0.11 0.08 0.07 0.06 0.04 0.05 0.08 0.07 0.10 0.15 0.14 0.09 0.08 0.09 0.08 0.07 0.05 0.06 0.07 0.07 0.08 0.11 0.11 0.14 0.23 0.31 0.22 0.04 0.01 0.00 0.01 0.01 0.01 0.02 0.03 0.04 0.04 0.05 0.04 0.02 0.03
0.00 0.02 0.07 0.09 0.08 0.08 0.08 0.09 0.11 0.07 0.14 0.14 0.14 0.14 0.13 0.14 0.10 0.07 0.07 0.05 0.04 0.07 0.14 0.23 0.19 0.11 0.04 0.01 0.01 0.01 0.00 0.00 0.00 0.00 0.00 0.01 0.04 0.06 0.04 0.03 0.07 0.06 0.09
0.00 0.01 0.04 0.09 0.08 0.09 0.08 0.08 0.05 0.08 0.13 0.13 0.09 0.09 0.07 0.06 0.07 0.08 0.05 0.04 0.08 0.14 0.22 0.16 0.05 0.01 0.00 0.00 0.00 0.00 0.00 0.00 0.00 0.00 0.00 0.00 0.01 0.07 0.06 0.06 0.07 0.04 0.07
0.00 0.01 0.02 0.08 0.07 0.06 0.04 0.04 0.05 0.10 0.11 0.07 0.04 0.03 0.05 0.06 0.09 0.06 0.06 0.07 0.09 0.07 0.04 0.01 0.00 0.00 0.00 0.00 0.00 0.00 0.00 0.00 0.00 0.00 0.00 0.00 0.01 0.05 0.06 0.07 0.10 0.11 0.08
0.01 0.02 0.03 0.10 0.09 0.07 0.03 0.03 0.08 0.08 0.07 0.06 0.03 0.02 0.04 0.10 0.08 0.06 0.06 0.03 0.01 0.00 0.00 0.00 0.00 0.00 0.00 0.00 0.00 0.00 0.01 0.01 0.00 0.00 0.00 0.01 0.03 0.09 0.08 0.09 0.11 0.15 0.19
0.02 0.03 0.04 0.11 0.11 0.06 0.04 0.05 0.08 0.06 0.06 0.06 0.03 0.02 0.04 0.09 0.09 0.08 0.02 0.00 0.00 0.00 0.00 0.00 0.00 0.00 0.00 0.00 0.00 0.00 0.01 0.01 0.00 0.00 0.00 0.01 0.03 0.11 0.07 0.08 0.11 0.17 0.20
0.02 0.04 0.05 0.13 0.12 0.05 0.05 0.06 0.05 0.06 0.07 0.06 0.02 0.02 0.06 0.09 0.09 0.11 0.03 0.00 0.00 0.00 0.00 0.00 0.00 0.00 0.00 0.00 0.00 0.00 0.00 0.00 0.00 0.00 0.00 0.00 0.01 0.05 0.03 0.03 0.06 0.08 0.09
0.02 0.05 0.04 0.14 0.12 0.06 0.05 0.04 0.04 0.05 0.08 0.06 0.03 0.04 0.07 0.08 0.07 0.10 0.04 0.00 0.00 0.00 0.00 0.00 0.01 0.01 0.01 0.01 0.00 0.00 0.00 0.00 0.00 0.00 0.00 0.00 0.00 0.00 0.01 0.02 0.04 0.05 0.05
0.17 0.08 0.05 0.10 0.06 0.04 0.04 0.02 0.03 0.05 0.07 0.06 0.04 0.04 0.04 0.02 0.04 0.08 0.04 0.00 0.00 0.01 0.00 0.03 0.04 0.01 0.01 0.00 0.00 0.00 0.00 0.00 0.00 0.00 0.00 0.00 0.00 0.01 0.03 0.06 0.08 0.08 0.08
0.36 0.26 0.09 0.05 0.03 0.03 0.04 0.02 0.02 0.03 0.04 0.04 0.03 0.02 0.00 0.00 0.00 0.01 0.00 0.00 0.01 0.01 0.03 0.04 0.01 0.01 0.01 0.00 0.00 0.00 0.00 0.00 0.00 0.00 0.00 0.00 0.00 0.07 0.14 0.14 0.12 0.10 0.11
0.45 0.34 0.26 0.04 0.02 0.02 0.03 0.02 0.01 0.02 0.02 0.02 0.00 0.00 0.00 0.00 0.00 0.00 0.00 0.00 0.00 0.03 0.03 0.00 0.01 0.02 0.01 0.00 0.00 0.00 0.00 0.00 0.00 0.00 0.00 0.01 0.07 0.15 0.10 0.06 0.05 0.07 0.07
0.64 0.22 0.18 0.06 0.02 0.03 0.02 0.02 0.00 0.00 0.01 0.01 0.00 0.00 0.00 0.00 0.00 0.00 0.00 0.00 0.00 0.03 0.00 0.00 0.01 0.01 0.00 0.00 0.00 0.00 0.00 0.00 0.00 0.00 0.00 0.02 0.06 0.08 0.05 0.03 0.05 0.04 0.04
1.16 0.87 0.26 0.09 0.06 0.04 0.02 0.02 0.01 0.00 0.00 0.00 0.00 0.00 0.00 0.00 0.00 0.00 0.00 0.00 0.00 0.00 0.00 0.00 0.00 0.00 0.00 0.00 0.00 0.00 0.00 0.00 0.00 0.00 0.00 0.04 0.04 0.05 0.01 0.01 0.01 0.01 0.01
0.51 1.17 1.08 0.63 0.18 0.04 0.04 0.02 0.00 0.00 0.00 0.00 0.00 0.00 0.00 0.00 0.00 0.00 0.00 0.00 0.00 0.00 0.00 0.00 0.00 0.00 0.00 0.00 0.00 0.00 0.00 0.00 0.00 0.00 0.00 0.00 0.00 0.01 0.00 0.00 0.00 0.00 0.00
0.29 0.48 0.55 0.65 0.49 0.16 0.11 0.04 0.00 0.00 0.00 0.00 0.00 0.00 0.00 0.00 0.00 0.00 0.00 0.00 0.00 0.00 0.00 0.00 0.00 0.00 0.00 0.00 0.00 0.00 0.00 0.00 0.00 0.00 0.00 0.00 0.00 0.00 0.00 0.01 0.01 0.01 0.02
0.30 0.29 0.32 0.27 0.35 0.34 0.23 0.13 0.05 0.00 0.00 0.00 0.00 0.00 0.00 0.00 0.00 0.00 0.00 0.00 0.00 0.00 0.00 0.00 0.00 0.00 0.00 0.00 0.00 0.00 0.00 0.00 0.00 0.00 0.00 0.00 0.00 0.00 0.00 0.00 0.00 0.02 0.11
0.18 0.29 0.22 0.27 0.24 0.21 0.49 0.33 0.20 0.07 0.03 0.01 0.00 0.00 0.00 0.00 0.00 0.00 0.00 0.00 0.00 0.00 0.00 0.00 0.00 0.00 0.00 0.00 0.00 0.00 0.00 0.00 0.00 0.00 0.00 0.00 0.00 0.00 0.00 0.00 0.00 0.00 0.01
0.15 0.12 0.20 0.20 0.21 0.13 0.17 0.42 0.35 0.32 0.18 0.04 0.02 0.01 0.00 0.00 0.00 0.00 0.00 0.00 0.00 0.00 0.00 0.00 0.00 0.00 0.00 0.00 0.00 0.00 0.00 0.00 0.00 0.00 0.00 0.00 0.00 0.00 0.00 0.00 0.00 0.00 0.00
0.20 0.27 0.26 0.29 0.29 0.20 0.21 0.35 0.39 0.35 0.22 0.15 0.07 0.02 0.01 0.00 0.00 0.00 0.00 0.00 0.00 0.00 0.00 0.00 0.00 0.00 0.00 0.00 0.00 0.00 0.00 0.00 0.00 0.00 0.00 0.00 0.00 0.00 0.00 0.00 0.00 0.00 0.01
0.17 0.29 0.38 0.37 0.33 0.47 0.50 0.60 0.65 0.37 0.19 0.31 0.24 0.08 0.10 0.06 0.03 0.02 0.01 0.00 0.00 0.00 0.00 0.00 0.00 0.00 0.00 0.01 0.01 0.01 0.00 0.00 0.00 0.00 0.00 0.01 0.02 0.01 0.00 0.00 0.00 0.00 0.00
0.39 0.34 0.51 0.47 0.35 0.44 0.45 0.38 0.32 0.23 0.20 0.14 0.20 0.28 0.27 0.17 0.16 0.12 0.06 0.03 0.01 0.00 0.01 0.01 0.01 0.01 0.01 0.05 0.05 0.00 0.00 0.00 0.00 0.00 0.00 0.02 0.01 0.01 0.00 0.00 0.00 0.00 0.00
0.20 0.40 0.42 0.41 0.50 0.38 0.31 0.17 0.21 0.29 0.38 0.20 0.38 0.23 0.18 0.22 0.21 0.14 0.11 0.12 0.07 0.03 0.02 0.02 0.06 0.08 0.08 0.14 0.20 0.08 0.02 0.00 0.00 0.00 0.00 0.00 0.00 0.00 0.00 0.00 0.00 0.00 0.00
0.03 0.04 0.12 0.27 0.30 0.34 0.61 0.85 0.72 0.72 0.48 0.35 0.21 0.19 0.18 0.16 0.23 0.28 0.34 0.35 0.31 0.19 0.11 0.14 0.16 0.18 0.19 0.18 0.17 0.20 0.07 0.02 0.00 0.00 0.00 0.00 0.00 0.00 0.00 0.01 0.01 0.01 0.01
0.00 0.05 0.11 0.25 0.28 0.36 0.49 0.64 0.66 0.61 0.71 0.65 0.81 0.74 0.70 0.63 0.58 0.50 0.45 0.50 0.49 0.35 0.28 0.22 0.24 0.21 0.21 0.14 0.12 0.11 0.11 0.08 0.08 0.04 0.01 0.01 0.01 0.00 0.00 0.01 0.01 0.01 0.01
0.00 0.00 0.04 0.10 0.16 0.23 0.38 0.54 0.64 0.62 0.67 0.65 0.66 0.61 0.71 0.78 0.74 0.77 0.80 0.86 0.79 0.62 0.48 0.40 0.28 0.24 0.17 0.20 0.19 0.19 0.14 0.13 0.09 0.09 0.05 0.05 0.05 0.04 0.02 0.01 0.00 0.00 0.00
0.00 0.00 0.01 0.04 0.10 0.24 0.44 0.51 0.53 0.42 0.38 0.39 0.44 0.42 0.47 0.52 0.53 0.53 0.62 0.70 0.58 0.43 0.39 0.35 0.37 0.27 0.23 0.22 0.18 0.19 0.19 0.21 0.14 0.10 0.10 0.08 0.08 0.05 0.02 0.01 0.00 0.00 0.00